Location: Wildlife_Club
(35.6000°N, 81.4330°W)
Time: 17:52:14
(UTC-04:00)

Transit 4A - All Passes

Search period start: 19 June 2019 00:00
Search period end: 29 June 2019 00:00
Orbit: 862 x 983 km, 66.8° (Epoch: 18 June)

Date Brightness Start Highest point End Pass type
(mag) Time Alt. Az. Time Alt. Az. Time Alt. Az.
19 Jun - 09:40:59 10° SSW 09:47:12 76° ESE 09:53:35 10° NNE daylight
19 Jun - 11:29:54 10° W 11:34:15 19° NW 11:38:41 10° N daylight
19 Jun - 18:47:17 10° NNW 18:53:26 48° ENE 18:59:24 10° SE daylight
19 Jun - 20:34:26 10° NW 20:39:25 25° WSW 20:44:16 10° SSW daylight
20 Jun - 08:07:29 10° SE 08:10:57 15° ESE 08:14:27 10° ENE daylight
20 Jun - 09:50:18 10° SSW 09:56:32 74° WNW 10:02:57 10° NNE daylight
20 Jun - 11:41:05 10° WNW 11:44:03 13° NW 11:47:02 10° NNW daylight
20 Jun - 17:12:31 10° NNE 17:15:19 13° NE 17:18:06 10° ENE daylight
20 Jun - 18:56:30 10° NNW 19:02:52 72° ENE 19:09:02 10° SSE daylight
20 Jun - 20:44:56 10° WNW 20:48:28 16° WSW 20:51:56 10° SW daylight
21 Jun - 08:15:07 10° SSE 08:20:00 25° ESE 08:24:59 10° NE daylight
21 Jun - 09:59:55 10° SW 10:05:58 49° WNW 10:12:11 10° NNE daylight
21 Jun - 17:20:48 10° N 17:25:07 19° NE 17:29:21 10° E daylight
21 Jun - 19:05:51 10° NNW 19:12:12 77° WSW 19:18:21 10° SSE daylight
22 Jun - 08:23:27 10° S 08:29:07 38° ESE 08:34:56 10° NE daylight
22 Jun - 10:09:51 10° WSW 10:15:29 34° NW 10:21:16 10° N daylight
22 Jun - 17:29:33 10° N 17:34:49 26° NE 17:39:56 10° ESE daylight
22 Jun - 19:15:22 10° NW 19:21:28 50° WSW 19:27:22 10° S daylight
23 Jun - 08:32:14 10° S 08:38:19 58° ESE 08:44:35 10° NE daylight
23 Jun - 10:20:08 10° WSW 10:25:07 24° NW 10:30:10 10° N daylight
23 Jun - 17:38:32 10° NNW 17:44:24 38° NE 17:50:07 10° ESE daylight
23 Jun - 19:25:07 10° NW 19:30:38 33° WSW 19:36:01 10° S daylight
24 Jun - 07:00:40 10° ESE 07:02:15 11° E 07:03:50 10° E daylight
24 Jun - 08:41:22 10° SSW 08:47:37 87° ESE 08:54:03 10° NNE daylight
24 Jun - 10:30:53 10° W 10:34:50 17° NW 10:38:50 10° N daylight
24 Jun - 16:05:29 10° NNE 16:06:03 10° NE 16:06:37 10° NE daylight
24 Jun - 17:47:39 10° NNW 17:53:54 56° ENE 17:59:57 10° SE daylight
24 Jun - 19:35:12 10° WNW 19:39:44 21° WSW 19:44:10 10° SSW daylight
25 Jun - 07:07:09 10° SE 07:11:16 19° ESE 07:15:26 10° ENE daylight
25 Jun - 08:50:47 10° SW 08:56:59 64° WNW 09:03:22 10° NNE daylight
25 Jun - 10:42:30 10° WNW 10:44:40 12° NW 10:46:51 10° NNW daylight
25 Jun - 16:12:29 10° N 16:15:55 15° NE 16:19:19 10° ENE daylight
25 Jun - 17:56:55 10° NNW 18:03:18 83° ENE 18:09:27 10° SSE daylight
25 Jun - 19:46:08 10° WNW 19:48:45 13° W 19:51:21 10° SW daylight
26 Jun - 07:15:05 10° SSE 07:20:20 29° ESE 07:25:40 10° NE daylight
26 Jun - 09:00:31 10° SW 09:06:27 43° WNW 09:12:32 10° NNE daylight
26 Jun - 16:21:00 10° N 16:25:41 21° NE 16:30:17 10° E daylight
26 Jun - 18:06:20 10° NNW 18:12:36 66° WSW 18:18:40 10° SSE daylight
27 Jun - 07:23:37 10° S 07:29:30 44° ESE 07:35:30 10° NE daylight
27 Jun - 09:10:34 10° WSW 09:16:00 30° NW 09:21:33 10° N daylight
27 Jun - 16:29:50 10° N 16:35:20 30° NE 16:40:41 10° ESE daylight
27 Jun - 18:15:55 10° NW 18:21:50 43° WSW 18:27:33 10° S daylight
28 Jun - 07:32:31 10° SSW 07:38:43 68° ESE 07:45:06 10° NNE daylight
28 Jun - 09:21:00 10° W 09:25:39 21° NW 09:30:24 10° N daylight
28 Jun - 16:38:52 10° NNW 16:44:54 43° ENE 16:50:44 10° SE daylight
28 Jun - 18:25:46 10° NW 18:30:58 28° WSW 18:36:03 10° SSW daylight
